EN

Hourly Weather Akbarpur

Today, 21 October, Wednesday

Time Temperature Precipitation Wind Pressure Humidity
00:00 +26°C° 0 mm 1 mps 748 mmHg 47%
01:00 +26°C° 0 mm 1 mps 747 mmHg 48%
02:00 +26°C° 0 mm 1 mps 747 mmHg 50%
03:00 +26°C° 0 mm 1 mps 747 mmHg 52%
04:00 +25°C° 0 mm 2 mps 747 mmHg 55%
05:00 +25°C° 0 mm 2 mps 747 mmHg 58%
06:00 +24°C° 0 mm 2 mps 747 mmHg 60%
07:00 +25°C° 0 mm 2 mps 747 mmHg 58%
08:00 +27°C° 0 mm 2 mps 748 mmHg 57%
09:00 +28°C° 0 mm 1 mps 748 mmHg 55%
10:00 +30°C° 0 mm 1 mps 748 mmHg 50%
11:00 +31°C° 0 mm 1 mps 748 mmHg 46%
12:00 +33°C° 0 mm 1 mps 748 mmHg 42%
13:00 +34°C° 0 mm 1 mps 747 mmHg 37%
14:00 +34°C° 0 mm 1 mps 746 mmHg 33%
15:00 +35°C° 0 mm 1 mps 745 mmHg 29%
16:00 +33°C° 0 mm 1 mps 745 mmHg 32%
17:00 +31°C° 0 mm 1 mps 745 mmHg 35%
18:00 +30°C° 0 mm 2 mps 745 mmHg 38%
19:00 +29°C° 0 mm 2 mps 745 mmHg 40%
20:00 +28°C° 0 mm 2 mps 746 mmHg 42%
21:00 +28°C° 0 mm 2 mps 746 mmHg 44%
22:00 +27°C° 0 mm 2 mps 746 mmHg 46%
23:00 +27°C° 0 mm 1 mps 746 mmHg 48%

Tomorrow, 22 October, Thursday

Time Temperature Precipitation Wind Pressure Humidity
00:00 +26°C° 0 mm 1 mps 746 mmHg 51%
01:00 +26°C° 0 mm 1 mps 746 mmHg 54%
02:00 +25°C° 0 mm 1 mps 746 mmHg 57%
03:00 +25°C° 0 mm 1 mps 745 mmHg 60%
04:00 +25°C° 0 mm 1 mps 745 mmHg 63%
05:00 +24°C° 0 mm 1 mps 745 mmHg 66%
06:00 +24°C° 0 mm 1 mps 745 mmHg 68%
07:00 +25°C° 0 mm 1 mps 746 mmHg 65%
08:00 +27°C° 0 mm 1 mps 746 mmHg 62%
09:00 +28°C° 0 mm 1 mps 747 mmHg 59%
10:00 +30°C° 0 mm 1 mps 747 mmHg 53%
11:00 +32°C° 0 mm 1 mps 747 mmHg 47%
12:00 +33°C° 0 mm 1 mps 747 mmHg 41%
13:00 +34°C° 0 mm 1 mps 746 mmHg 39%
14:00 +32°C° 0 mm 0 mps 745 mmHg 37%
15:00 +32°C° 0 mm 0 mps 745 mmHg 36%
16:00 +31°C° 0 mm 0 mps 745 mmHg 38%
17:00 +30°C° 0 mm 0 mps 744 mmHg 41%
18:00 +31°C° 0 mm 1 mps 744 mmHg 44%
19:00 +30°C° 0 mm 1 mps 745 mmHg 45%
20:00 +30°C° 0 mm 1 mps 745 mmHg 47%
21:00 +29°C° 0 mm 1 mps 746 mmHg 49%
22:00 +29°C° 0 mm 1 mps 746 mmHg 52%
23:00 +28°C° 0 mm 1 mps 746 mmHg 55%

Day after tomorrow, 23 October, Friday

Time Temperature Precipitation Wind Pressure Humidity
00:00 +28°C° 0 mm 2 mps 746 mmHg 58%
01:00 +27°C° 0 mm 2 mps 745 mmHg 60%
02:00 +27°C° 0 mm 1 mps 745 mmHg 61%
03:00 +26°C° 0 mm 1 mps 745 mmHg 63%
04:00 +26°C° 0 mm 1 mps 745 mmHg 63%
05:00 +26°C° 0 mm 1 mps 745 mmHg 64%
06:00 +26°C° 0 mm 1 mps 745 mmHg 64%
07:00 +27°C° 0 mm 1 mps 746 mmHg 62%
08:00 +28°C° 0 mm 1 mps 746 mmHg 59%
09:00 +29°C° 0 mm 1 mps 747 mmHg 56%
10:00 +30°C° 0 mm 1 mps 747 mmHg 52%
11:00 +32°C° 0 mm 1 mps 746 mmHg 47%
12:00 +33°C° 0 mm 1 mps 746 mmHg 43%
13:00 +34°C° 0 mm 1 mps 746 mmHg 40%
14:00 +34°C° 0 mm 1 mps 745 mmHg 38%
15:00 +35°C° 0 mm 2 mps 745 mmHg 35%
16:00 +33°C° 0 mm 1 mps 744 mmHg 38%
17:00 +32°C° 0 mm 1 mps 744 mmHg 41%
18:00 +28°C° 0 mm 0 mps 744 mmHg 44%
19:00 +30°C° 0 mm 1 mps 745 mmHg 45%
20:00 +29°C° 0 mm 1 mps 745 mmHg 46%
21:00 +28°C° 0 mm 1 mps 746 mmHg 47%
22:00 +28°C° 0 mm 1 mps 746 mmHg 48%
23:00 +27°C° 0 mm 1 mps 746 mmHg 49%

24 October, Saturday

Time Temperature Precipitation Wind Pressure Humidity
00:00 +27°C° 0 mm 1 mps 746 mmHg 51%
01:00 +27°C° 0 mm 1 mps 745 mmHg 52%
02:00 +26°C° 0 mm 1 mps 745 mmHg 53%
03:00 +26°C° 0 mm 1 mps 745 mmHg 54%
04:00 +25°C° 0 mm 1 mps 745 mmHg 54%
05:00 +25°C° 0 mm 2 mps 745 mmHg 55%
06:00 +25°C° 0 mm 2 mps 745 mmHg 55%
07:00 +26°C° 0 mm 2 mps 746 mmHg 53%
08:00 +27°C° 0 mm 2 mps 747 mmHg 50%
09:00 +29°C° 0 mm 1 mps 747 mmHg 48%
10:00 +30°C° 0 mm 2 mps 747 mmHg 43%
11:00 +32°C° 0 mm 2 mps 747 mmHg 38%
12:00 +35°C° 0 mm 2 mps 747 mmHg 33%
13:00 +35°C° 0 mm 2 mps 747 mmHg 31%
14:00 +35°C° 0 mm 2 mps 746 mmHg 29%
15:00 +36°C° 0 mm 2 mps 746 mmHg 27%
16:00 +34°C° 0 mm 2 mps 746 mmHg 31%
17:00 +31°C° 0 mm 2 mps 746 mmHg 35%
18:00 +30°C° 0 mm 1 mps 746 mmHg 38%
19:00 +29°C° 0 mm 1 mps 746 mmHg 39%
20:00 +28°C° 0 mm 1 mps 747 mmHg 40%
21:00 +27°C° 0 mm 1 mps 747 mmHg 40%
22:00 +27°C° 0 mm 1 mps 748 mmHg 41%
23:00 +25°C° 0 mm 0 mps 748 mmHg 41%

25 October, Sunday

Time Temperature Precipitation Wind Pressure Humidity
00:00 +24°C° 0 mm 0 mps 748 mmHg 42%
01:00 +26°C° 0 mm 1 mps 748 mmHg 42%
02:00 +25°C° 0 mm 1 mps 748 mmHg 43%
03:00 +25°C° 0 mm 1 mps 748 mmHg 43%
04:00 +25°C° 0 mm 1 mps 748 mmHg 44%
05:00 +24°C° 0 mm 1 mps 748 mmHg 45%
06:00 +22°C° 0 mm 0 mps 749 mmHg 45%
07:00 +23°C° 0 mm 0 mps 749 mmHg 44%
08:00 +27°C° 0 mm 1 mps 750 mmHg 42%
09:00 +28°C° 0 mm 1 mps 750 mmHg 41%
10:00 +30°C° 0 mm 1 mps 750 mmHg 38%
11:00 +32°C° 0 mm 1 mps 750 mmHg 35%
12:00 +33°C° 0 mm 1 mps 750 mmHg 32%
13:00 +33°C° 0 mm 1 mps 749 mmHg 30%
14:00 +34°C° 0 mm 1 mps 749 mmHg 29%
15:00 +35°C° 0 mm 2 mps 748 mmHg 27%
16:00 +32°C° 0 mm 2 mps 748 mmHg 31%
17:00 +31°C° 0 mm 2 mps 748 mmHg 34%
18:00 +29°C° 0 mm 2 mps 748 mmHg 38%
19:00 +29°C° 0 mm 1 mps 748 mmHg 38%
20:00 +28°C° 0 mm 1 mps 748 mmHg 38%
21:00 +27°C° 0 mm 1 mps 749 mmHg 38%
22:00 +27°C° 0 mm 1 mps 749 mmHg 38%
23:00 +26°C° 0 mm 1 mps 749 mmHg 39%

26 October, Monday

Time Temperature Precipitation Wind Pressure Humidity
00:00 +26°C° 0 mm 1 mps 749 mmHg 40%
01:00 +26°C° 0 mm 1 mps 749 mmHg 40%
02:00 +25°C° 0 mm 1 mps 749 mmHg 41%
03:00 +25°C° 0 mm 1 mps 749 mmHg 42%
04:00 +24°C° 0 mm 1 mps 749 mmHg 43%
05:00 +24°C° 0 mm 1 mps 749 mmHg 44%
06:00 +24°C° 0 mm 1 mps 749 mmHg 45%
07:00 +25°C° 0 mm 1 mps 749 mmHg 45%
08:00 +26°C° 0 mm 2 mps 750 mmHg 44%
09:00 +28°C° 0 mm 2 mps 751 mmHg 44%
10:00 +29°C° 0 mm 2 mps 750 mmHg 39%
11:00 +31°C° 0 mm 2 mps 750 mmHg 34%
12:00 +34°C° 0 mm 3 mps 750 mmHg 29%
13:00 +34°C° 0 mm 3 mps 749 mmHg 28%
14:00 +35°C° 0 mm 3 mps 749 mmHg 26%
15:00 +35°C° 0 mm 3 mps 748 mmHg 25%
16:00 +33°C° 0 mm 3 mps 748 mmHg 29%
17:00 +30°C° 0 mm 2 mps 748 mmHg 33%
18:00 +28°C° 0 mm 2 mps 747 mmHg 36%
19:00 +28°C° 0 mm 1 mps 748 mmHg 37%
20:00 +27°C° 0 mm 1 mps 748 mmHg 37%
21:00 +26°C° 0 mm 1 mps 748 mmHg 38%
22:00 +26°C° 0 mm 1 mps 748 mmHg 39%
23:00 +25°C° 0 mm 1 mps 748 mmHg 40%

27 October, Tuesday

Time Temperature Precipitation Wind Pressure Humidity
00:00 +24°C° 0 mm 1 mps 748 mmHg 41%
01:00 +24°C° 0 mm 1 mps 748 mmHg 42%
02:00 +24°C° 0 mm 1 mps 748 mmHg 42%
03:00 +24°C° 0 mm 1 mps 748 mmHg 42%
04:00 +23°C° 0 mm 1 mps 748 mmHg 43%
05:00 +23°C° 0 mm 1 mps 748 mmHg 43%
06:00 +23°C° 0 mm 1 mps 748 mmHg 44%
07:00 +24°C° 0 mm 1 mps 749 mmHg 42%
08:00 +26°C° 0 mm 1 mps 749 mmHg 40%
09:00 +27°C° 0 mm 1 mps 750 mmHg 38%
10:00 +29°C° 0 mm 1 mps 750 mmHg 35%
11:00 +30°C° 0 mm 2 mps 750 mmHg 32%
12:00 +32°C° 0 mm 2 mps 749 mmHg 30%
13:00 +34°C° 0 mm 2 mps 749 mmHg 28%
14:00 +34°C° 0 mm 3 mps 748 mmHg 26%
15:00 +35°C° 0 mm 3 mps 748 mmHg 25%
16:00 +33°C° 0 mm 3 mps 748 mmHg 28%
17:00 +30°C° 0 mm 2 mps 748 mmHg 31%
18:00 +28°C° 0 mm 2 mps 748 mmHg 34%
19:00 +28°C° 0 mm 2 mps 748 mmHg 34%
20:00 +27°C° 0 mm 2 mps 748 mmHg 34%
21:00 +26°C° 0 mm 2 mps 748 mmHg 35%
22:00 +25°C° 0 mm 2 mps 748 mmHg 36%
23:00 +25°C° 0 mm 1 mps 748 mmHg 37%
Show more

We Need Your Consent

Meteoprog and our Service Providers may store and access personal data such as cookies, device identifiers or other similar technologies on your device and process such data to personalise content and ads, as well as provide social media features and to analyse the traffic.

  • Store and/or access information on your device

    Cookies, device identifiers or other information can be stored or accessed on your device for the purposes indicated above.

  • Personalised ads and content, ad and content measurement, audience insights, and products development

    Ads and content can be personalised based on a profile. More data can be added to better personalise ads and content. Ad and content performance can be measured. Insights about the audience who saw the ads and content can be derived. Such data can be used to develop or improve user’s experience, systems and software.

By clicking ‘I Agree’ you will allow the use of indicated cookies, device identifiers, web beacons or other similar technologies. Your settings can be changed in the browser on your device.

For certain purposes, legitimate interests may be relied on, rather than consent. You can read more about this in our Privacy and Cookie Policy.